Temperature
23 21 21 21 21 23 23 23 22 22 21 19 17 17 17 17 16 16 15 15 15 16 16 17 17 17 18 18 18 17 17 17 17 17 17 16 16 16 17 17 17 17 17 17
21 22 23 23 22 22 22 23 23 22 21 19 17 17 17 16 16 15 15 15 15 16 16 16 17 17 17 17 17 17 17 16 16 16 16 16 16 16 16 16 16 17 17 17
23 23 24 24 24 24 24 23 23 22 21 19 18 17 17 16 16 15 15 15 15 15 16 16 16 17 17 17 16 16 16 16 16 16 16 16 15 16 16 16 16 16 16 16
23 23 24 25 25 25 24 24 24 23 21 19 19 18 17 16 15 15 15 15 15 15 16 16 16 16 16 16 16 16 16 16 16 16 16 15 15 15 15 16 16 16 16 16
23 24 24 25 25 25 24 22 22 21 20 18 18 18 17 16 16 15 15 15 15 15 16 16 16 16 16 16 16 16 16 16 16 16 16 15 15 15 15 15 15 15 15 16
23 23 24 24 24 24 23 21 20 17 17 19 18 18 17 15 16 15 15 15 15 15 16 16 16 16 16 16 16 16 16 16 16 16 15 15 15 15 15 15 15 15 15 15
22 23 23 24 24 23 21 20 19 19 18 18 17 17 17 16 16 15 15 15 15 15 15 15 16 16 16 16 16 16 16 16 15 15 15 15 15 14 14 14 14 14 14 14
22 21 23 24 24 23 22 20 19 19 18 17 17 17 16 16 16 15 15 15 15 15 15 16 16 16 16 15 15 15 15 15 15 15 14 14 14 14 14 13 13 13 13 13
22 22 23 23 23 23 22 19 18 17 17 17 17 17 16 15 15 15 15 15 15 15 15 16 15 15 15 15 15 14 14 14 14 14 14 13 13 13 13 13 12 12 12 12
22 22 22 22 22 21 20 18 16 17 18 18 18 17 16 16 15 14 14 15 15 15 15 15 15 15 15 15 14 14 14 14 13 13 13 13 13 12 12 12 12 12 11 11
21 20 20 20 20 20 20 19 15 14 16 17 17 17 16 15 14 14 14 15 15 15 15 15 15 15 14 14 14 13 13 13 13 13 13 12 12 12 12 11 11 11 11 11
19 17 18 19 20 19 19 18 16 17 16 15 15 15 15 14 14 14 14 15 15 15 15 15 15 14 14 13 13 13 13 13 12 12 12 12 12 11 11 11 11 11 11 10
19 17 18 18 18 18 18 18 16 14 14 14 15 16 14 14 14 14 15 15 15 15 15 14 14 14 13 13 13 13 12 12 12 12 12 11 11 11 11 11 11 11 10 10
18 16 17 19 19 18 18 18 17 15 15 15 16 15 14 13 13 14 15 15 15 14 14 14 13 13 13 13 12 12 12 12 11 11 11 11 11 11 11 11 10 10 10 10
17 17 17 17 18 18 18 18 17 17 16 16 16 15 14 13 13 14 14 14 14 14 13 13 13 12 12 12 12 11 11 11 11 11 10 10 10 10 10 10 10 10 10 10
16 17 17 18 18 18 17 17 17 17 16 16 15 14 14 14 14 14 14 14 13 13 13 12 12 12 11 11 11 10 10 10 10 10 9 9 9 9 10 9 9 9 9 9
15 16 16 16 17 17 17 17 17 16 16 15 14 13 13 12 12 13 13 13 13 12 12 11 11 10 10 10 10 9 9 9 9 9 8 8 8 8 8 8 9 9 9 9
15 14 13 15 17 18 16 17 17 16 15 14 13 13 13 13 13 13 13 12 12 11 11 10 10 9 9 9 9 8 8 8 8 7 7 7 7 7 7 7 7 8 8 8
14 14 14 14 16 16 17 17 16 15 14 14 13 12 13 13 11 12 13 12 11 10 10 9 9 9 8 8 8 7 7 7 7 7 6 6 6 6 6 6 6 7 7 7
14 13 14 14 17 17 17 17 17 15 14 14 13 12 12 11 8 10 12 11 10 10 9 9 8 8 8 7 7 6 6 6 6 6 6 5 6 5 5 6 6 6 6 6
16 14 14 15 16 15 16 16 16 15 14 14 14 13 12 10 10 11 11 10 9 9 8 8 7 7 7 6 6 6 6 6 5 5 5 5 5 5 5 5 5 5 5 6
16 15 14 13 15 16 16 15 14 14 15 14 14 13 12 12 11 11 10 9 9 8 8 7 7 6 6 6 6 5 5 5 5 5 5 5 5 5 5 5 5 5 5 5
14 14 13 13 14 15 15 16 16 15 15 14 13 13 12 11 10 10 9 8 8 7 7 7 6 6 6 6 5 5 5 5 5 5 5 5 5 5 5 5 5 5 5 5
15 12 12 13 14 15 16 16 15 15 14 13 13 12 11 10 10 9 8 8 7 7 7 6 6 6 6 6 5 5 5 5 5 5 5 4 4 4 5 4 4 4 5 5
15 13 13 14 14 15 15 15 15 14 14 13 12 11 10 10 9 8 8 7 7 7 6 6 6 5 5 5 5 5 5 5 5 5 5 4 4 4 4 4 4 4 4 5
13 13 14 14 16 14 16 16 15 14 13 12 11 11 10 9 9 8 8 7 7 6 6 6 6 6 5 5 5 5 5 5 5 5 5 4 4 4 4 4 4 4 4 5
Wind_Speed
3 3 4 8 8 6 2 2 2 1 3 7 9 8 9 10 10 10 9 9 9 7 6 7 7 6 5 6 5 4 3 2 2 2 1 1 1 3 2 2 4 5 6 5
5 4 7 5 4 5 4 2 1 1 4 5 6 7 6 9 9 8 8 7 7 7 7 7 7 8 8 8 6 4 4 4 4 2 1 0 1 2 2 2 2 3 3 3
4 6 5 2 0 3 3 4 4 4 4 4 5 4 4 4 6 7 8 6 6 6 6 6 6 6 6 6 4 3 4 4 4 3 2 2 1 2 2 2 3 3 3 2
4 5 3 2 1 2 2 3 4 5 4 1 1 1 2 2 4 5 6 5 5 5 5 5 5 5 4 3 2 3 3 4 4 4 4 4 2 2 2 2 2 4 3 2
5 4 3 3 3 1 2 4 4 3 4 3 4 3 3 1 1 2 2 2 3 3 3 3 4 3 2 2 2 2 3 3 3 4 4 4 3 1 1 2 4 4 4 4
5 3 2 3 3 2 4 6 6 6 5 3 3 1 3 3 3 2 2 2 1 2 2 2 3 3 3 2 1 1 1 1 1 1 2 3 2 1 1 2 3 3 3 3
8 7 5 2 3 5 6 6 5 6 5 3 2 1 5 3 3 3 4 4 2 2 3 3 4 4 4 4 4 3 2 2 2 1 1 2 2 2 1 1 1 2 2 2
3 7 6 4 1 1 2 7 6 4 4 4 3 3 4 1 1 1 2 2 2 3 4 6 7 6 6 6 6 5 5 5 4 4 4 4 4 3 3 4 3 3 3 4
2 5 5 4 3 3 3 3 4 6 2 1 4 5 4 1 0 1 1 1 3 5 6 7 7 7 7 7 7 7 7 7 7 6 6 6 6 6 6 6 5 4 5 4
4 3 6 6 6 7 5 6 5 4 2 2 4 3 4 4 3 2 2 3 4 5 6 7 7 7 7 7 7 7 7 8 8 7 7 7 7 7 7 6 7 7 7 6
3 2 6 6 6 6 5 5 6 4 4 4 3 5 2 4 3 2 2 3 5 6 7 8 7 7 7 7 7 8 8 9 9 9 9 9 9 9 8 7 9 9 8 7
3 4 2 4 3 2 4 4 4 3 0 2 2 5 4 2 2 1 2 4 6 7 7 7 7 7 7 8 8 9 9 9 11 10 10 10 10 9 9 10 11 10 9 9
5 5 4 7 7 7 6 5 4 5 4 3 1 5 2 4 5 4 3 6 7 8 8 7 7 8 9 9 9 10 10 11 11 10 10 11 11 11 12 12 11 10 10 10
5 5 4 3 4 2 3 5 3 4 3 1 4 6 3 4 4 6 7 8 9 9 9 9 9 9 10 10 10 11 12 12 12 11 11 12 13 13 13 13 12 11 11 10
5 5 3 1 2 3 3 4 4 4 2 3 6 6 6 4 6 7 8 9 10 10 10 11 11 11 11 11 11 11 12 12 12 11 12 13 14 13 12 12 12 12 11 12
5 5 3 3 4 5 4 4 3 2 1 3 4 6 5 5 6 7 10 11 11 11 11 12 12 12 12 12 12 12 12 12 11 12 13 13 13 13 13 13 13 12 12 12
3 5 3 1 2 3 3 2 1 3 4 4 6 6 5 7 9 9 10 11 12 13 13 13 13 13 13 13 12 12 13 12 12 13 13 13 13 13 13 13 12 12 12 12
6 5 4 2 2 3 5 2 3 4 6 6 6 7 7 10 10 10 10 10 11 12 12 13 12 12 12 13 13 13 13 13 13 13 14 13 13 13 12 12 12 12 11 10
4 7 5 3 1 5 3 3 2 3 7 5 6 8 8 8 8 7 8 7 9 11 12 12 12 13 12 14 14 13 14 14 14 14 14 13 12 13 12 12 12 11 10 10
7 6 6 4 1 4 5 3 0 1 6 4 5 8 8 6 7 8 8 9 10 11 11 12 12 14 14 15 13 13 15 14 15 15 14 14 13 13 13 13 12 11 10 11
4 5 4 3 3 6 5 1 2 1 6 3 5 7 7 5 8 9 11 11 10 12 14 13 14 14 15 15 14 14 15 16 16 15 14 14 14 14 14 13 12 11 10 10
5 4 3 4 1 6 3 4 4 7 4 4 5 6 7 9 10 10 10 11 12 13 13 13 13 15 15 14 14 15 16 16 15 15 15 14 14 14 13 10 10 10 9 9
6 7 6 7 7 5 4 6 4 5 4 4 4 6 7 7 8 9 9 10 12 13 13 13 14 16 16 14 14 16 16 16 16 15 15 14 13 12 10 10 9 8 7 7
2 3 4 3 6 5 5 4 3 4 4 4 5 6 5 7 9 10 10 11 12 12 14 13 15 16 17 16 16 15 15 15 15 15 14 12 11 10 9 7 7 6 6 6
5 6 4 4 6 3 5 6 5 3 3 3 4 4 5 7 9 9 10 12 12 12 12 13 15 16 18 17 17 16 15 14 15 14 12 11 9 9 8 7 6 7 6 6
6 8 8 7 7 7 6 5 5 4 3 4 4 5 6 5 8 9 10 10 12 14 14 15 16 17 18 18 17 16 14 14 14 12 11 9 8 7 6 6 5 6 7 8
Wind_Direction
31 57 265 244 210 214 234 260 294 314 102 77 81 71 36 29 44 51 49 51 54 47 33 34 30 29 35 39 41 33 29 10 6 22 39 318 272 277 283 238 240 239 232 224
19 297 256 250 210 194 202 225 210 87 96 104 96 70 46 37 40 41 43 37 36 34 24 23 23 24 29 34 26 22 20 12 2 354 339 305 294 292 315 317 295 273 245 227
223 258 287 303 4 161 197 192 192 164 101 87 111 55 29 32 39 45 43 35 32 37 28 20 24 29 37 36 23 30 32 31 18 8 359 2 1 355 2 349 337 332 329 292
262 276 322 354 335 159 248 243 180 150 130 91 110 189 308 12 21 29 27 24 22 20 24 18 16 22 31 33 28 35 35 33 23 33 51 56 49 29 352 331 330 343 357 339
290 306 331 334 298 207 203 55 80 93 117 73 33 113 277 348 342 336 343 2 6 7 11 4 356 349 348 8 31 42 43 37 28 47 74 81 70 44 334 344 354 355 358 357
274 295 267 275 318 65 114 74 59 53 69 47 337 135 258 232 220 236 266 268 266 292 314 322 316 320 321 322 334 326 50 35 19 67 88 103 104 81 27 355 348 343 338 343
335 333 327 311 355 22 67 76 24 1 7 266 305 217 249 227 197 204 237 255 256 267 280 284 278 275 275 280 279 278 265 257 254 225 189 171 171 181 200 253 282 306 319 313
342 319 325 347 348 285 72 122 149 217 238 283 341 266 269 204 176 193 222 233 240 258 263 264 265 263 265 267 269 270 266 262 261 256 249 238 222 215 223 228 229 239 243 256
219 282 314 359 5 99 98 79 141 134 139 315 298 296 320 92 325 281 274 263 264 268 273 270 271 269 263 265 266 264 265 267 265 258 255 253 245 236 236 239 237 240 242 250
174 271 318 329 30 36 81 127 85 99 136 285 306 303 301 304 282 263 262 273 290 297 288 280 276 274 273 271 273 274 267 264 266 265 260 260 254 250 246 246 246 245 247 245
111 136 328 15 33 352 20 54 85 99 136 157 271 283 324 296 288 260 263 289 299 296 291 289 289 290 289 284 277 274 271 269 269 265 260 259 258 254 250 246 247 246 246 243
102 107 360 316 316 356 69 62 123 124 207 146 193 270 337 7 23 50 346 319 309 298 292 290 288 288 285 281 277 272 268 265 262 259 259 259 260 259 255 252 251 247 245 243
118 88 34 352 347 8 38 33 84 105 102 121 195 277 5 31 29 12 333 310 304 300 297 293 291 286 282 279 277 274 271 267 266 263 260 261 261 259 257 254 252 247 243 244
104 84 133 200 259 312 23 21 62 91 94 255 242 265 304 341 333 317 305 297 298 292 290 288 286 284 281 279 276 274 273 270 270 267 264 263 262 259 256 254 252 249 244 241
84 88 73 31 15 94 72 47 54 79 154 212 265 261 265 267 280 286 288 292 296 292 292 288 285 285 284 284 281 278 277 277 275 272 269 266 264 261 259 256 253 251 248 247
69 107 82 32 39 70 64 35 46 39 319 269 275 273 254 276 285 285 287 290 292 289 289 289 289 289 288 287 286 285 283 280 277 273 272 271 269 266 260 256 255 252 251 249
84 115 108 222 287 1 299 264 275 269 251 236 250 261 290 297 290 282 284 289 289 289 291 293 293 292 291 290 288 286 284 284 281 277 275 273 271 270 267 264 258 252 251 249
122 103 111 117 66 273 255 250 221 245 255 230 241 266 276 269 276 278 277 280 286 291 294 295 295 294 292 290 290 289 290 289 285 282 280 277 273 270 268 265 262 257 252 246
121 126 108 108 205 288 273 232 200 245 278 225 238 270 281 293 315 295 280 279 282 287 291 293 293 295 295 296 297 297 295 293 291 289 285 283 279 276 272 267 263 261 256 251
58 82 105 114 163 259 251 246 231 139 289 239 239 272 287 317 319 291 292 305 300 299 299 299 300 300 301 300 300 299 298 298 296 294 291 287 280 274 271 266 261 256 252 252
42 47 92 140 227 266 249 264 72 222 270 258 248 267 279 265 251 275 300 303 296 297 298 300 302 304 303 303 303 301 301 299 298 297 294 289 283 277 271 266 259 252 250 249
166 147 167 145 210 272 217 143 182 224 248 263 265 270 273 272 279 291 299 299 302 304 304 306 307 307 306 305 305 303 301 300 301 299 296 292 287 283 281 267 259 250 245 246
185 187 186 186 212 241 226 208 216 188 228 259 263 277 283 286 290 297 296 299 302 305 306 308 310 310 310 309 308 305 304 304 304 302 299 296 294 287 279 272 265 256 243 241
226 138 139 233 259 239 228 231 231 208 230 261 271 283 287 288 292 298 300 303 307 306 311 312 314 315 315 315 313 308 306 307 306 304 303 300 298 294 286 274 261 252 243 237
217 162 170 241 265 261 254 233 230 235 254 280 295 290 290 292 296 297 303 307 309 312 312 314 317 317 316 317 316 314 313 313 310 308 306 303 299 295 294 282 266 253 241 232
197 176 175 217 216 193 233 227 201 209 244 271 290 301 303 293 291 300 305 305 309 315 317 320 320 319 318 318 317 317 318 317 315 314 312 309 304 301 297 292 288 261 246 245
Height
1486 1491 1494 1491 1489 1489 1491 1494 1496 1493 1490 1495 1501 1504 1502 1499 1497 1496 1496 1496 1496 1496 1496 1496 1497 1497 1496 1496 1496 1495 1494 1493 1493 1492 1490 1489 1489 1490 1491 1492 1495 1497 1498 1499
1491 1492 1483 1481 1482 1486 1490 1493 1494 1492 1491 1497 1504 1506 1504 1502 1502 1501 1500 1499 1497 1497 1498 1497 1497 1497 1497 1496 1496 1495 1494 1494 1493 1492 1491 1490 1489 1490 1491 1491 1493 1493 1494 1495
1491 1486 1478 1479 1481 1485 1487 1489 1489 1492 1494 1497 1502 1509 1508 1506 1505 1504 1502 1501 1500 1499 1499 1498 1498 1498 1497 1496 1496 1496 1494 1493 1492 1491 1490 1489 1489 1490 1490 1491 1491 1491 1492 1491
1486 1481 1479 1479 1480 1481 1488 1480 1482 1487 1497 1506 1503 1518 1511 1509 1507 1506 1504 1503 1502 1501 1500 1500 1500 1499 1498 1498 1497 1496 1495 1493 1492 1491 1490 1489 1489 1489 1488 1488 1488 1489 1488 1488
1487 1481 1480 1481 1479 1477 1481 1480 1484 1489 1497 1507 1509 1516 1516 1510 1510 1508 1506 1504 1503 1502 1502 1502 1501 1500 1499 1498 1497 1497 1495 1494 1492 1491 1490 1489 1488 1487 1487 1486 1486 1485 1485 1485
1483 1479 1479 1478 1475 1475 1478 1484 1491 1500 1506 1517 1514 1516 1516 1512 1508 1507 1506 1505 1504 1504 1503 1503 1502 1501 1500 1498 1497 1496 1495 1493 1492 1491 1489 1487 1486 1485 1484 1484 1483 1482 1481 1481
1490 1483 1478 1477 1478 1479 1483 1497 1516 1518 1525 1522 1513 1515 1515 1506 1505 1505 1505 1505 1505 1505 1504 1503 1502 1501 1500 1498 1497 1495 1494 1492 1490 1489 1487 1485 1484 1483 1481 1480 1479 1478 1477 1477
1502 1501 1483 1478 1480 1483 1487 1495 1518 1526 1528 1523 1515 1516 1510 1504 1504 1504 1505 1505 1505 1505 1504 1503 1502 1500 1499 1497 1496 1494 1492 1490 1488 1486 1485 1483 1481 1480 1478 1477 1475 1474 1473 1472
1501 1499 1482 1479 1479 1480 1488 1498 1500 1516 1520 1525 1520 1512 1506 1504 1504 1504 1504 1505 1504 1504 1503 1502 1500 1499 1497 1495 1493 1492 1489 1488 1486 1484 1482 1480 1478 1476 1474 1473 1471 1470 1469 1468
1492 1498 1488 1483 1480 1484 1488 1496 1508 1517 1526 1528 1520 1516 1516 1507 1506 1505 1504 1504 1503 1503 1502 1500 1498 1496 1494 1492 1490 1488 1486 1484 1482 1480 1478 1476 1474 1472 1470 1468 1466 1465 1464 1463
1490 1500 1498 1492 1495 1497 1494 1500 1510 1519 1520 1528 1530 1524 1509 1508 1505 1505 1504 1504 1503 1501 1500 1498 1495 1493 1491 1489 1486 1484 1482 1479 1477 1475 1472 1470 1468 1466 1464 1462 1460 1459 1458 1457
1493 1503 1509 1501 1494 1493 1494 1500 1507 1517 1521 1525 1529 1526 1508 1506 1505 1504 1503 1503 1502 1500 1498 1495 1493 1490 1488 1485 1483 1480 1477 1474 1471 1468 1466 1463 1461 1459 1456 1455 1453 1452 1451 1450
1494 1505 1517 1514 1509 1501 1501 1502 1507 1515 1523 1527 1529 1522 1508 1506 1505 1504 1503 1502 1500 1497 1495 1492 1489 1486 1483 1480 1477 1474 1471 1468 1464 1461 1458 1455 1453 1450 1448 1446 1445 1444 1443 1442
1491 1507 1515 1520 1515 1508 1507 1506 1507 1513 1523 1523 1520 1516 1509 1507 1506 1504 1502 1500 1497 1494 1492 1489 1485 1482 1479 1475 1471 1467 1464 1460 1457 1453 1450 1447 1444 1441 1439 1437 1436 1435 1434 1433
1493 1508 1509 1509 1506 1505 1508 1509 1509 1511 1514 1519 1515 1513 1509 1507 1505 1503 1500 1497 1494 1491 1488 1485 1481 1477 1473 1468 1464 1460 1456 1452 1448 1444 1441 1437 1435 1432 1429 1428 1426 1425 1424 1424
1498 1508 1510 1511 1508 1508 1511 1510 1509 1511 1511 1512 1512 1512 1505 1504 1503 1500 1497 1494 1491 1487 1484 1480 1476 1471 1466 1461 1457 1452 1447 1443 1439 1435 1431 1428 1425 1422 1419 1417 1416 1415 1414 1414
1503 1508 1516 1520 1513 1513 1518 1512 1511 1511 1510 1511 1513 1510 1504 1503 1500 1497 1494 1491 1487 1483 1479 1475 1470 1465 1460 1454 1449 1444 1439 1434 1429 1425 1421 1418 1414 1411 1409 1408 1406 1405 1404 1404
1503 1512 1520 1522 1520 1524 1517 1507 1506 1508 1507 1506 1506 1505 1503 1501 1497 1494 1491 1488 1483 1479 1474 1469 1464 1458 1453 1447 1441 1436 1430 1425 1420 1415 1411 1407 1404 1401 1399 1397 1396 1395 1394 1394
1498 1507 1519 1525 1524 1520 1512 1506 1506 1509 1508 1504 1504 1502 1500 1497 1494 1490 1488 1484 1480 1475 1470 1464 1458 1452 1445 1439 1433 1427 1421 1416 1411 1406 1402 1398 1394 1391 1389 1387 1386 1385 1384 1384
1501 1504 1516 1523 1521 1523 1512 1504 1503 1507 1509 1502 1502 1500 1498 1495 1496 1488 1483 1480 1475 1470 1465 1458 1452 1445 1438 1432 1426 1419 1413 1408 1402 1398 1393 1389 1385 1382 1379 1377 1375 1375 1374 1375
1507 1513 1518 1521 1521 1516 1505 1502 1504 1513 1510 1500 1499 1497 1495 1493 1491 1485 1480 1475 1471 1465 1459 1453 1446 1438 1431 1425 1419 1412 1406 1400 1395 1389 1384 1380 1376 1372 1369 1367 1366 1365 1365 1365
1509 1514 1518 1523 1521 1517 1500 1501 1505 1504 1498 1497 1496 1494 1492 1489 1485 1481 1476 1471 1466 1459 1453 1446 1439 1432 1425 1419 1412 1405 1398 1393 1387 1382 1376 1371 1367 1364 1361 1358 1357 1356 1356 1357
1505 1505 1508 1510 1510 1500 1497 1497 1497 1497 1496 1495 1493 1491 1489 1485 1481 1477 1472 1467 1461 1454 1447 1440 1433 1426 1419 1413 1406 1399 1392 1386 1380 1374 1369 1364 1360 1356 1353 1351 1350 1349 1349 1350
1499 1499 1502 1502 1498 1496 1495 1495 1495 1495 1494 1493 1491 1489 1486 1482 1478 1474 1468 1462 1456 1449 1442 1435 1428 1420 1413 1407 1400 1394 1387 1380 1374 1368 1363 1358 1354 1350 1347 1345 1344 1343 1343 1344
1494 1497 1499 1499 1495 1493 1493 1492 1492 1492 1491 1490 1488 1486 1483 1479 1475 1470 1465 1458 1452 1445 1438 1431 1423 1416 1408 1402 1395 1389 1382 1376 1369 1364 1358 1353 1349 1345 1343 1341 1339 1338 1339 1339
1490 1491 1495 1494 1488 1490 1489 1489 1490 1489 1489 1487 1485 1483 1480 1476 1472 1467 1461 1455 1448 1441 1434 1427 1419 1412 1405 1398 1391 1384 1378 1372 1366 1360 1354 1350 1346 1342 1340 1338 1336 1335 1335 1336